| time (UTC) | temp C | wind direction | speed KPH | gust KPH | rain 1hr cm | rain 24hr cm | rain mn cm | humidity % | barometer mb |
| 20260510224536 | 25 | 269 | 0.0 | 4.8 | 0.00 | 2.74 | 18.44 | 63 | 1013.8 |
| 20260510223033 | 26 | 294 | 0.0 | 3.2 | 0.00 | 2.74 | 18.44 | 60 | 1013.6 |
| 20260510221539 | 26 | 296 | 0.0 | 6.4 | 0.00 | 2.74 | 18.44 | 55 | 1013.7 |
| 20260510220033 | 27 | 227 | 0.0 | 0.0 | 0.00 | 2.74 | 18.44 | 47 | 1013.7 |
| 20260510214536 | 27 | 227 | 0.0 | 1.6 | 0.00 | 2.74 | 18.44 | 47 | 1013.6 |
| 20260510213030 | 27 | 224 | 0.0 | 1.6 | 0.00 | 2.74 | 18.44 | 50 | 1013.6 |
| 20260510211530 | 28 | 224 | 0.0 | 3.2 | 0.00 | 2.74 | 18.44 | 49 | 1013.7 |
| 20260510210027 | 28 | 286 | 0.0 | 4.8 | 0.00 | 2.74 | 18.44 | 43 | 1013.8 |
| 20260510204527 | 27 | 292 | 0.0 | 3.2 | 0.00 | 2.74 | 18.44 | 51 | 1014.0 |
| 20260510203027 | 27 | 303 | 0.0 | 8.0 | 0.00 | 2.74 | 18.44 | 46 | 1014.0 |
| 20260510201525 | 28 | 267 | 0.0 | 1.6 | 0.00 | 2.74 | 18.44 | 44 | 1014.2 |
| 20260510200028 | 27 | 271 | 0.0 | 3.2 | 0.00 | 2.74 | 18.44 | 46 | 1014.3 |
| 20260510194529 | 27 | 278 | 0.0 | 1.6 | 0.00 | 2.74 | 18.44 | 47 | 1014.5 |
| 20260510193019 | 27 | 278 | 0.0 | 0.0 | 0.00 | 2.74 | 18.44 | 53 | 1014.5 |
| 20260510191521 | 27 | 297 | 0.0 | 3.2 | 0.00 | 2.74 | 18.44 | 51 | 1014.5 |
| 20260510190021 | 27 | 297 | 0.0 | 6.4 | 0.00 | 2.74 | 18.44 | 46 | 1014.5 |
| 20260510184517 | 27 | 171 | 0.0 | 6.4 | 0.00 | 2.74 | 18.44 | 48 | 1014.6 |
| 20260510183017 | 27 | 182 | 0.0 | 4.8 | 0.00 | 2.74 | 18.44 | 48 | 1014.6 |
| 20260510181515 | 27 | 288 | 0.0 | 3.2 | 0.00 | 2.74 | 18.44 | 50 | 1014.7 |
| 20260510180015 | 27 | 235 | 0.0 | 3.2 | 0.00 | 2.74 | 18.44 | 52 | 1014.8 |
| 20260510174512 | 27 | 280 | 1.6 | 6.4 | 0.00 | 2.74 | 18.44 | 47 | 1015.0 |
| 20260510173016 | 26 | 223 | 0.0 | 4.8 | 0.00 | 2.74 | 18.44 | 51 | 1015.1 |
| 20260510171508 | 26 | 283 | 0.0 | 3.2 | 0.00 | 2.74 | 18.44 | 56 | 1015.3 |
| 20260510170005 | 25 | 282 | 0.0 | 6.4 | 0.00 | 2.74 | 18.44 | 54 | 1015.5 |
| 20260510164502 | 25 | 275 | 0.0 | 9.7 | 0.00 | 2.74 | 18.44 | 60 | 1015.6 |
| 20260510163122 | 25 | 17 | 0.0 | 4.8 | 0.00 | 2.74 | 18.44 | 61 | 1015.4 |
| 20260510161602 | 24 | 198 | 0.0 | 3.2 | 0.00 | 2.74 | 18.44 | 63 | 1015.3 |
| 20260510160058 | 23 | 198 | 0.0 | 6.4 | 0.15 | 2.74 | 18.44 | 65 | 1015.2 |
| 20260510154549 | 23 | 184 | 1.6 | 4.8 | 4.37 | 2.74 | 18.44 | 68 | 1015.3 |
| 20260510153050 | 23 | 184 | 0.0 | 4.8 | 11.30 | 2.74 | 18.44 | 72 | 1015.1 |
| 20260510151541 | 22 | 283 | 0.0 | 3.2 | 12.06 | 2.74 | 18.44 | 75 | 1015.0 |
| 20260510150039 | 21 | 211 | 0.0 | 6.4 | 12.06 | 2.72 | 18.19 | 77 | 1014.9 |
| 20260510144541 | 20 | 230 | 0.0 | 3.2 | 7.65 | 2.64 | 13.77 | 82 | 1014.8 |
| 20260510143040 | 18 | 230 | 0.0 | 6.4 | 1.02 | 19.96 | 7.14 | 88 | 1015.1 |
| 20260510141533 | 17 | 228 | 0.0 | 4.8 | 0.25 | 19.20 | 6.35 | 94 | 1015.4 |
| 20260510140021 | 16 | 223 | 0.0 | 4.8 | 0.00 | 18.95 | 6.12 | 98 | 1015.2 |
| 20260510134517 | 16 | 225 | 0.0 | 3.2 | 0.00 | 18.95 | 6.12 | 99 | 1015.2 |
| 20260510133017 | 16 | 225 | 0.0 | 3.2 | 0.00 | 18.95 | 6.12 | 99 | 1015.2 |
| 20260510131509 | 15 | 225 | 0.0 | 1.6 | 0.00 | 18.95 | 6.12 | 99 | 1015.1 |
| 20260510130006 | 14 | 225 | 0.0 | 0.0 | 0.00 | 18.95 | 6.12 | 99 | 1015.0 |
| 20260510124502 | 13 | 225 | 0.0 | 0.0 | 0.00 | 22.76 | 6.12 | 99 | 1014.9 |
| 20260510123100 | 12 | 225 | 0.0 | 0.0 | 0.00 | 22.76 | 6.12 | 99 | 1014.9 |
| 20260510121557 | 11 | 225 | 0.0 | 0.0 | 0.00 | 22.76 | 6.12 | 98 | 1014.7 |
| 20260510120056 | 11 | 225 | 0.0 | 0.0 | 0.00 | 22.76 | 6.12 | 98 | 1014.7 |
| 20260510114553 | 11 | 225 | 0.0 | 0.0 | 0.00 | 23.06 | 6.12 | 98 | 1014.2 |
| 20260510113049 | 11 | 225 | 0.0 | 0.0 | 0.00 | 23.06 | 6.12 | 97 | 1013.9 |
| 20260510111554 | 11 | 225 | 0.0 | 0.0 | 0.00 | 23.06 | 6.12 | 97 | 1013.6 |
| 20260510110048 | 11 | 225 | 0.0 | 0.0 | 0.00 | 23.06 | 6.12 | 97 | 1013.4 |
| 20260510104549 | 11 | 225 | 0.0 | 0.0 | 0.00 | 23.98 | 6.12 | 97 | 1013.2 |
| 20260510103046 | 11 | 225 | 0.0 | 0.0 | 0.00 | 23.98 | 6.12 | 97 | 1013.0 |
| 20260510101536 | 11 | 225 | 0.0 | 0.0 | 0.00 | 23.98 | 6.12 | 97 | 1012.7 |
| 20260510100035 | 11 | 225 | 0.0 | 0.0 | 0.00 | 23.98 | 6.12 | 97 | 1012.6 |
| 20260510094535 | 11 | 225 | 0.0 | 0.0 | 0.00 | 23.98 | 6.12 | 97 | 1012.7 |
| 20260510093040 | 12 | 225 | 0.0 | 0.0 | 0.00 | 23.98 | 6.12 | 97 | 1012.6 |
| 20260510091534 | 12 | 225 | 0.0 | 0.0 | 0.00 | 23.98 | 6.12 | 97 | 1012.5 |
| 20260510090033 | 12 | 225 | 0.0 | 0.0 | 0.00 | 23.98 | 6.12 | 98 | 1012.5 |
| 20260510084532 | 12 | 225 | 0.0 | 0.0 | 0.00 | 2.87 | 6.12 | 97 | 1012.3 |
| 20260510083035 | 11 | 225 | 0.0 | 0.0 | 0.00 | 2.87 | 6.12 | 97 | 1012.2 |
| 20260510081538 | 11 | 225 | 0.0 | 0.0 | 0.00 | 2.87 | 6.12 | 97 | 1012.1 |
| 20260510080029 | 11 | 225 | 0.0 | 0.0 | 0.00 | 2.87 | 6.12 | 97 | 1012.2 |
| 20260510074526 | 11 | 225 | 0.0 | 0.0 | 0.00 | 4.72 | 6.12 | 97 | 1012.2 |
| 20260510073024 | 11 | 225 | 0.0 | 0.0 | 0.56 | 4.72 | 6.12 | 97 | 1012.1 |
| 20260510071521 | 11 | 225 | 0.0 | 0.0 | 0.81 | 4.72 | 6.12 | 96 | 1011.9 |
| 20260510070024 | 11 | 225 | 0.0 | 0.0 | 0.81 | 4.72 | 6.12 | 96 | 1011.7 |
| 20260510064528 | 11 | 225 | 0.0 | 0.0 | 1.24 | 7.95 | 6.12 | 96 | 1011.7 |
| 20260510063031 | 11 | 225 | 0.0 | 0.0 | 0.43 | 7.87 | 5.31 | 96 | 1011.8 |
| 20260510061520 | 11 | 225 | 0.0 | 0.0 | 0.66 | 7.87 | 5.31 | 95 | 1011.7 |
| 20260510060033 | 11 | 225 | 0.0 | 0.0 | 5.31 | 7.87 | 5.31 | 95 | 1011.5 |
| 20260510054522 | 11 | 225 | 0.0 | 0.0 | 4.93 | 8.64 | 4.88 | 95 | 1011.7 |
| 20260510053020 | 11 | 225 | 0.0 | 0.0 | 4.98 | 8.64 | 4.88 | 94 | 1011.7 |
| 20260510051519 | 11 | 225 | 0.0 | 0.0 | 6.96 | 8.61 | 4.65 | 94 | 1011.6 |
| 20260510050115 | 11 | 225 | 0.0 | 0.0 | 8.94 | 8.15 | 0.00 | 93 | 1011.5 |
| 20260510044529 | 12 | 225 | 0.0 | 0.0 | 8.92 | 8.15 | 8.13 | 92 | 1011.3 |
| 20260510043007 | 12 | 225 | 0.0 | 0.0 | 8.92 | 8.13 | 8.13 | 92 | 1011.4 |
| 20260510041505 | 12 | 225 | 0.0 | 0.0 | 6.10 | 7.85 | 7.85 | 91 | 1011.5 |
| 20260510040005 | 12 | 225 | 0.0 | 0.0 | 0.05 | 7.26 | 7.24 | 91 | 1011.5 |
| 20260510034505 | 13 | 225 | 0.0 | 0.0 | 0.05 | 7.42 | 7.24 | 90 | 1011.5 |
| 20260510033005 | 13 | 225 | 0.0 | 0.0 | 0.00 | 7.42 | 7.24 | 89 | 1011.5 |
| 20260510031504 | 13 | 225 | 0.0 | 0.0 | 0.00 | 7.42 | 7.24 | 88 | 1011.5 |
| 20260510030001 | 14 | 225 | 0.0 | 0.0 | 0.00 | 7.42 | 7.24 | 86 | 1011.3 |
| 20260510024600 | 14 | 225 | 0.0 | 0.0 | 0.00 | 7.42 | 7.24 | 86 | 1011.2 |
| 20260510023057 | 15 | 225 | 0.0 | 0.0 | 0.00 | 7.42 | 7.24 | 84 | 1011.0 |
| 20260510021555 | 15 | 225 | 0.0 | 0.0 | 0.00 | 7.42 | 7.24 | 81 | 1010.7 |
| 20260510020053 | 16 | 225 | 0.0 | 0.0 | 0.00 | 7.42 | 7.24 | 80 | 1010.5 |
| 20260510014558 | 16 | 225 | 0.0 | 0.0 | 0.00 | 7.82 | 7.24 | 78 | 1010.1 |
| 20260510013048 | 17 | 225 | 0.0 | 0.0 | 0.00 | 7.82 | 7.24 | 78 | 1010.0 |
| 20260510011547 | 18 | 225 | 0.0 | 0.0 | 0.00 | 7.82 | 7.24 | 76 | 1009.9 |
| 20260510010045 | 19 | 225 | 0.0 | 0.0 | 0.00 | 7.82 | 7.24 | 72 | 1009.8 |
| 20260510004545 | 20 | 225 | 0.0 | 0.0 | 0.00 | 11.40 | 7.24 | 69 | 1009.7 |
| 20260510003050 | 21 | 225 | 0.0 | 0.0 | 0.00 | 11.40 | 7.24 | 66 | 1009.6 |
| 20260510001543 | 22 | 225 | 0.0 | 0.0 | 0.00 | 11.40 | 7.24 | 62 | 1009.3 |
| 20260510000052 | 22 | 225 | 0.0 | 0.0 | 0.00 | 11.40 | 7.24 | 58 | 1009.3 |
| 20260509234554 | 23 | 225 | 0.0 | 0.0 | 0.00 | 14.96 | 7.24 | 55 | 1009.3 |
| 20260509233046 | 23 | 225 | 0.0 | 3.2 | 0.00 | 14.96 | 7.24 | 52 | 1009.1 |
| 20260509231541 | 24 | 226 | 0.0 | 0.0 | 0.00 | 14.96 | 7.24 | 57 | 1009.0 |
| 20260509230041 | 25 | 226 | 0.0 | 0.0 | 0.00 | 14.96 | 7.24 | 51 | 1008.9 |